Torna al catalogo

STARLINK-34323

AttivoComunicazioniVLEO
NORAD 64219·PAYLOAD·🇺🇸 United States

Lanciato May 31, 2025 da Vandenberg Space Force Base

Loading…

Prossimi Passaggi (prossime 24 ore)

TLE

AggiornatoSource: CelesTrak SupGP

Epoca: Sep 14, 2026, 21:05 UTC

1 64219C 25117S   26257.87895833  .00043970  00000+0  12992-2 0  2575
2 64219  53.1568 239.6703 0001331  96.9458  55.7537 15.34365245    12

Traccia STARLINK-34323 in tempo reale con AllMySat

Download on the App Store